Change the Weather History Date:

Sunday, August 17, 2014

  Actual Average Record
Temperature  
Mean Temperature 86 °F 82 °F  
Max Temperature 102 °F 97 °F 111 °F (1892)
Min Temperature 70 °F 66 °F 53 °F (1968)
Degree Days  
Heating Degree Days 0    
Month to date heating degree days 0  
Since 1 June heating degree days 0  
Since 1 July heating degree days 0  
Cooling Degree Days 21    
Month to date cooling degree days 352  
Year to date cooling degree days 1967  
Since 1 June cooling degree days 1524  
Growing Degree Days 36 (Base 50)    
Moisture  
Dew Point 46 °F    
Average Humidity 29    
Maximum Humidity 47    
Minimum Humidity 10    
Precipitation  
Precipitation 0.00 in 0.00 in 0.02 in (1985)
Month to date precipitation T 0.00  
Year to date precipitation 4.09 7.85  
Since 1 July precipitation 0.01 0.01  
Snow  
Snow 0.00 in - - ()
Month to date snowfall 0.0  
Since 1 June snowfall 0.0  
Since 1 July snowfall 0.0  
Snow Depth 0.00 in    
Sea Level Pressure  
Sea Level Pressure 29.89 in    
Wind  
Wind Speed 8 mph (NW)    
Max Wind Speed 15 mph    
Max Gust Speed 19 mph    
Visibility 10 miles    
Events      
T = Trace of Precipitation, MM = Missing Value Source: NWS Daily Summary

Daily Weather History Graph

Daily Weather History Graph

Search for Another Location

Airport or City:

Trip Planner

Search our weather history database for the weather conditions in past years. The results will help you decide how hot, cold, wet, or windy it might be!

Date:

Astronomy

Aug. 17, 2014 Rise Set
Actual Time 6:17 AM PDT 7:47 PM PDT
Civil Twilight 5:50 AM PDT 8:14 PM PDT
Nautical Twilight 5:17 AM PDT 8:47 PM PDT
Astronomical Twilight 4:42 AM PDT 9:21 PM PDT
Moon No Moon Rise 1:56 PM PDT (8/17)
Length of Visible Light 14h 24m
Length of Day
13h 29m
Waning Gibbous, 47% of the Moon is Illuminated
Aug 17
Waning Gibbous
Aug 25
New
Sep 2
First Quarter
Sep 8
Full
Sep 15
Last Quarter

Hourly Weather History & Observations

Time (PDT) Temp. Dew Point Humidity Pressure Visibility Wind Dir Wind Speed Gust Speed Precip Events Conditions
12:53 AM 80.1 °F 51.1 °F 36% 29.91 in 10.0 mi NW 9.2 mph - N/A   Clear
1:53 AM 77.0 °F 51.1 °F 40% 29.91 in 10.0 mi NW 9.2 mph - N/A   Clear
2:53 AM 75.0 °F 48.9 °F 40% 29.92 in 10.0 mi NW 9.2 mph - N/A   Clear
3:53 AM 73.0 °F 48.9 °F 42% 29.93 in 10.0 mi NW 5.8 mph - N/A   Clear
4:53 AM 71.1 °F 48.9 °F 45% 29.93 in 10.0 mi WNW 6.9 mph - N/A   Clear
5:53 AM 70.0 °F 48.9 °F 47% 29.94 in 10.0 mi NNW 5.8 mph - N/A   Clear
6:53 AM 70.0 °F 48.9 °F 47% 29.95 in 10.0 mi NNW 3.5 mph - N/A   Clear
7:53 AM 73.9 °F 48.0 °F 40% 29.96 in 10.0 mi NNW 3.5 mph - N/A   Clear
8:53 AM 80.1 °F 48.0 °F 32% 29.96 in 10.0 mi Variable 4.6 mph - N/A   Clear
9:53 AM 84.0 °F 46.9 °F 27% 29.96 in 10.0 mi Variable 6.9 mph - N/A   Clear
10:53 AM 89.1 °F 48.9 °F 25% 29.96 in 10.0 mi SE 6.9 mph - N/A   Clear
11:53 AM 91.9 °F 51.1 °F 25% 29.94 in 10.0 mi South 6.9 mph - N/A   Clear
12:53 PM 96.1 °F 48.0 °F 19% 29.91 in 10.0 mi SSW 5.8 mph - N/A   Clear
1:53 PM 99.0 °F 45.0 °F 16% 29.90 in 10.0 mi Variable 6.9 mph - N/A   Clear
2:53 PM 100.0 °F 43.0 °F 14% 29.87 in 10.0 mi NW 8.1 mph - N/A   Clear
3:53 PM 100.9 °F 41.0 °F 13% 29.85 in 10.0 mi NNW 8.1 mph - N/A   Clear
4:53 PM 102.0 °F 39.9 °F 12% 29.83 in 10.0 mi WNW 11.5 mph - N/A   Partly Cloudy
5:53 PM 102.0 °F 35.1 °F 10% 29.82 in 10.0 mi NW 10.4 mph - N/A   Partly Cloudy
6:53 PM 98.1 °F 41.0 °F 14% 29.81 in 10.0 mi WNW 13.8 mph - N/A   Clear
7:53 PM 93.9 °F 43.0 °F 17% 29.82 in 10.0 mi NW 10.4 mph - N/A   Clear
8:53 PM 90.0 °F 45.0 °F 21% 29.83 in 10.0 mi NW 11.5 mph - N/A   Clear
9:53 PM 87.1 °F 45.0 °F 23% 29.84 in 10.0 mi NW 10.4 mph - N/A   Clear
10:53 PM 82.9 °F 44.1 °F 25% 29.84 in 10.0 mi NW 5.8 mph - N/A   Clear
11:53 PM 80.6 °F 46.4 °F 30% 29.85 in 10.0 mi WNW 10.4 mph - N/A   Clear